EW3230 Weather Reports


time (UTC)temp
C
wind
direction
speed
KPH
gust
KPH
rain 1hr
cm
rain 24hr
cm
rain mn
cm
humidity
%
barometer
mb
20260905063737 17 238 0.0 3.2 0.00 0.00 0.00 69 1008.7
20260905062249 17 101 0.0 1.6 0.00 0.00 0.00 67 1008.7
20260905061237 17 99 0.0 0.0 0.00 0.00 0.00 66 1008.8
20260905060239 17 98 0.0 1.6 0.00 0.00 0.00 65 1008.8
20260905055242 17 101 0.0 0.0 0.00 0.00 0.00 63 1008.7
20260905055237 17 100 0.0 0.0 0.00 0.00 0.00 64 1008.7
20260905053236 17 101 0.0 0.0 0.00 0.00 0.00 62 1008.8
20260905052738 17 101 0.0 1.6 0.00 0.00 0.00 61 1008.7
20260905051237 17 101 0.0 1.6 0.00 0.00 0.00 60 1008.7
20260905050237 17 101 0.0 0.0 0.00 0.00 0.00 60 1008.8
20260905045236 17 100 0.0 0.0 0.00 0.00 0.00 60 1008.9
20260905044237 17 101 0.0 0.0 0.00 0.00 0.00 59 1008.9
20260905043741 17 101 0.0 0.0 0.00 0.00 0.00 59 1008.8
20260905042233 17 101 0.0 0.0 0.00 0.00 0.00 59 1008.9
20260905041233 17 100 0.0 0.0 0.00 0.00 0.00 59 1008.9
20260905040231 18 101 0.0 0.0 0.00 0.00 0.00 59 1008.8
20260905035734 18 101 0.0 0.0 0.00 0.00 0.00 60 1008.8
20260905034232 18 101 0.0 0.0 0.00 0.00 0.00 60 1008.8
20260905033232 18 101 0.0 0.0 0.00 0.00 0.00 60 1008.8
20260905032232 18 101 0.0 0.0 0.00 0.00 0.00 61 1008.7
20260905031233 18 101 0.0 0.0 0.00 0.00 0.00 62 1008.7
20260905030232 18 101 0.0 0.0 0.00 0.00 0.00 62 1008.9
20260905025235 18 101 0.0 1.6 0.00 0.00 0.00 62 1008.7
20260905024231 19 113 0.0 1.6 0.00 0.00 0.00 62 1008.7
20260905023233 19 68 0.0 0.0 0.00 0.00 0.00 63 1008.7
20260905022746 19 73 0.0 0.0 0.00 0.00 0.00 64 1008.7
20260905021232 19 73 0.0 0.0 0.00 0.00 0.00 65 1008.9
20260905020734 19 74 0.0 0.0 0.00 0.00 0.00 65 1008.9
20260905015230 20 74 0.0 0.0 0.00 0.00 0.00 66 1009.0
20260905014735 20 74 0.0 0.0 0.00 0.00 0.00 66 1009.2
20260905013232 20 73 0.0 0.0 0.00 0.00 0.00 68 1009.1
20260905012231 20 74 0.0 0.0 0.00 0.00 0.00 69 1009.3
20260905011232 20 74 0.0 0.0 0.00 0.00 0.00 70 1009.3
20260905010232 21 73 0.0 0.0 0.00 0.00 0.00 72 1009.3
20260905005231 21 73 0.0 0.0 0.00 0.00 0.00 73 1009.3
20260905004231 21 73 0.0 0.0 0.00 0.00 0.00 73 1009.3
20260905003230 21 73 0.0 0.0 0.00 0.00 0.00 74 1009.2
20260905002244 21 74 0.0 0.0 0.00 0.00 0.00 75 1009.1
20260905001733 21 75 0.0 0.0 0.00 0.00 0.00 75 1008.9
20260905000233 22 75 0.0 0.0 0.00 0.00 0.00 75 1008.9
20260904235245 22 75 0.0 1.6 0.00 0.00 0.00 76 1008.8
20260904233233 22 65 0.0 3.2 0.00 0.00 0.00 75 1008.7
20260904232239 23 6 0.0 0.0 0.00 0.00 0.00 73 1008.4
20260904232234 23 78 0.0 3.2 0.00 0.00 0.00 74 1008.6
20260904230231 23 6 0.0 1.6 0.00 0.00 0.00 74 1008.4
20260904225232 24 46 0.0 1.6 0.00 0.00 0.00 74 1008.4
20260904224231 24 88 0.0 0.0 0.00 0.00 0.00 75 1008.5
20260904223232 25 88 0.0 0.0 0.00 0.00 0.00 75 1008.3
20260904222232 25 88 0.0 0.0 0.00 0.00 0.00 75 1008.2
20260904221231 25 88 0.0 0.0 0.00 0.00 0.00 75 1008.1
20260904220233 25 88 0.0 0.0 0.00 0.00 0.00 75 1008.2
20260904215230 25 88 0.0 0.0 0.00 0.00 0.00 75 1008.1
20260904214231 26 87 0.0 0.0 0.00 0.00 0.00 74 1008.1
20260904213231 26 87 0.0 1.6 0.00 0.00 0.00 74 1008.0
20260904212230 26 80 0.0 1.6 0.00 0.00 0.00 73 1008.0
20260904211230 27 110 0.0 3.2 0.00 0.00 0.00 72 1008.0
20260904210735 27 74 0.0 1.6 0.00 0.00 0.00 71 1008.1
20260904205230 27 46 0.0 4.8 0.00 0.00 0.00 70 1008.0
20260904204232 28 11 0.0 3.2 0.00 0.00 0.00 67 1008.1
20260904203232 28 156 0.0 1.6 0.00 0.00 0.00 68 1008.0
20260904202232 27 90 0.0 4.8 0.00 0.00 0.00 71 1008.0
20260904201734 27 110 0.0 1.6 0.00 0.00 0.00 72 1008.0
20260904200231 27 103 0.0 3.2 0.00 0.00 0.00 73 1008.0
20260904195231 27 41 0.0 1.6 0.00 0.00 0.00 71 1008.0
20260904194232 26 79 0.0 1.6 0.00 0.00 0.00 70 1008.2
20260904193232 26 75 0.0 4.8 0.00 0.00 0.00 70 1008.1
20260904192232 27 119 1.6 6.4 0.00 0.00 0.00 69 1008.1
20260904191233 27 70 1.6 12.9 0.00 0.00 0.00 66 1008.2
20260904190233 27 79 0.0 3.2 0.00 0.00 0.00 70 1008.1
20260904185230 27 43 1.6 9.7 0.00 0.00 0.00 70 1008.1
20260904184231 27 77 1.6 6.4 0.00 0.00 0.00 66 1008.1
20260904183239 28 356 0.0 3.2 0.00 0.00 0.00 62 1008.2
20260904183233 28 294 1.6 6.4 0.00 0.00 0.00 63 1008.1
20260904182341 27 61 0.0 6.4 0.00 0.00 0.00 65 1008.2
20260904180228 27 253 0.0 6.4 0.00 0.00 0.00 63 1008.4
20260904175226 27 44 0.0 4.8 0.00 0.00 0.00 66 1008.4
20260904174227 27 260 0.0 4.8 0.00 0.00 0.00 65 1008.4
20260904173727 27 293 1.6 6.4 0.00 0.00 0.00 65 1008.6
20260904172226 27 99 0.0 8.0 0.00 0.00 0.00 64 1008.5
20260904171224 27 273 1.6 8.0 0.00 0.00 0.00 67 1008.5
20260904170727 27 89 0.0 9.7 0.00 0.00 0.00 68 1008.5
20260904165221 27 235 0.0 4.8 0.00 0.00 0.00 69 1008.7
20260904164218 27 239 1.6 9.7 0.00 0.00 0.00 68 1008.8
20260904163218 26 343 1.6 9.7 0.00 0.00 0.00 71 1008.9
20260904162221 26 221 1.6 6.4 0.00 0.00 0.00 71 1009.1
20260904161218 26 72 1.6 9.7 0.00 0.00 0.00 72 1009.0
20260904160231 26 237 1.6 8.0 0.00 0.00 0.00 72 1009.2
20260904155218 25 52 1.6 4.8 0.00 0.00 0.00 73 1009.3
20260904154218 25 302 0.0 6.4 0.00 0.00 0.00 74 1009.2
20260904153219 25 232 1.6 4.8 0.00 0.00 0.00 74 1009.2
20260904152219 25 327 1.6 11.3 0.00 0.00 0.00 74 1009.3
20260904151219 24 79 1.6 9.7 0.00 0.00 0.00 74 1009.5
20260904150220 24 216 1.6 8.0 0.00 0.00 0.00 74 1009.6
20260904145217 24 217 1.6 11.3 0.00 0.00 0.00 73 1009.6
20260904144217 23 79 1.6 11.3 0.00 0.00 0.00 71 1009.6
20260904143218 23 91 1.6 9.7 0.00 0.00 0.00 69 1009.6
20260904142212 23 75 3.2 9.7 0.00 0.00 0.00 70 1009.7
20260904141214 23 83 1.6 9.7 0.00 0.00 0.00 65 1009.8
20260904140215 22 105 1.6 8.0 0.00 0.00 0.00 61 1009.9
20260904135214 22 285 1.6 4.8 0.00 0.00 0.00 54 1010.0
20260904134218 21 75 1.6 8.0 0.00 0.00 0.00 53 1009.8
20260904134212 21 52 1.6 8.0 0.00 0.00 0.00 53 1009.8
20260904132212 21 78 0.0 4.8 0.00 0.00 0.00 54 1009.8
20260904131213 21 324 0.0 1.6 0.00 0.00 0.00 54 1009.8
20260904130716 21 232 0.0 1.6 0.00 0.03 0.00 55 1009.8
20260904125215 21 231 0.0 1.6 0.00 0.03 0.00 55 1009.9
20260904124713 20 298 0.0 3.2 0.00 0.08 0.00 55 1009.9
20260904123712 20 22 0.0 0.0 0.00 0.10 0.00 56 1009.9
20260904122209 20 23 0.0 0.0 0.00 0.10 0.00 56 1009.9
20260904121209 20 23 0.0 0.0 0.00 0.10 0.00 56 1010.1
20260904120208 19 23 0.0 0.0 0.00 0.13 0.00 57 1010.1
20260904115215 18 22 0.0 0.0 0.00 0.25 0.00 57 1010.2
20260904115209 18 23 0.0 0.0 0.00 0.15 0.00 57 1010.2
20260904113208 18 22 0.0 0.0 0.00 0.25 0.00 57 1010.1
20260904112208 18 22 0.0 0.0 0.00 0.25 0.00 57 1010.0
20260904111204 18 22 0.0 0.0 0.00 0.25 0.00 57 1010.0
20260904110205 18 22 0.0 0.0 0.00 0.25 0.00 57 1010.0
20260904105203 18 22 0.0 0.0 0.00 0.25 0.00 57 1009.9
20260904104203 18 22 0.0 0.0 0.00 0.25 0.00 57 1009.9
20260904103204 18 22 0.0 0.0 0.00 0.25 0.00 57 1009.9
20260904102704 18 22 0.0 0.0 0.00 0.25 0.00 58 1009.8
20260904101704 17 23 0.0 0.0 0.00 0.30 0.00 58 1009.8
20260904100204 17 23 0.0 0.0 0.00 0.53 0.00 58 1009.7
20260904095202 17 23 0.0 0.0 0.00 0.58 0.00 58 1009.6
20260904094156 17 22 0.0 0.0 0.00 0.66 0.00 58 1009.6
20260904093157 17 22 0.0 0.0 0.00 0.66 0.00 58 1009.6
20260904092157 17 22 0.0 0.0 0.00 0.69 0.00 58 1009.5
20260904091158 17 22 0.0 0.0 0.00 0.69 0.00 58 1009.5
20260904090157 17 22 0.0 0.0 0.00 0.71 0.00 57 1009.6
20260904085158 17 22 0.0 1.6 0.00 0.71 0.00 57 1009.7
20260904084156 17 23 0.0 0.0 0.00 0.71 0.00 57 1009.7
20260904083156 17 22 0.0 0.0 0.00 0.71 0.00 57 1009.7
20260904082156 17 23 0.0 0.0 0.00 0.71 0.00 57 1009.7
20260904081652 17 23 0.0 0.0 0.00 0.74 0.00 57 1009.7
20260904080152 17 23 0.0 0.0 0.00 0.74 0.00 57 1009.6
20260904075151 18 23 0.0 0.0 0.00 0.74 0.00 57 1009.8
20260904074150 18 23 0.0 0.0 0.00 0.74 0.00 57 1009.8
20260904073152 18 23 0.0 0.0 0.00 0.74 0.00 57 1010.0
20260904072153 18 23 0.0 0.0 0.00 0.74 0.00 57 1010.1
20260904071152 18 23 0.0 0.0 0.00 0.74 0.00 57 1010.2
20260904070152 18 23 0.0 0.0 0.00 0.74 0.00 57 1010.3
20260904065149 18 23 0.0 0.0 0.00 0.74 0.00 57 1010.5